When you browse on this site, cookies collect data to enhance your experience and personalize the content and advertising you see.
Visit our Privacy Policy to learn more. By continuing to use the site, you agree to this use of cookies and data.
  • în România
  • Lista ţărilor
  • Pe 7 zile
  • Temperatura apei
  • Hartă satelitară
  • Meteo pe hartă
  • Widget-uri
  • user-avatar
    Intrare

    Meteo pe oră la Pernik

    Astăzi, 23 Martie, Sâmbătă

    Timp Temperatura Precipitaţii Vânt Presiune Umiditate
    00:00 +7°C° 0 mm 1 m/s 696 mmHg 67%
    01:00 +6°C° 0 mm 1 m/s 696 mmHg 68%
    02:00 +6°C° 0 mm 1 m/s 696 mmHg 69%
    03:00 +5°C° 0 mm 1 m/s 696 mmHg 69%
    04:00 +5°C° 0 mm 1 m/s 696 mmHg 69%
    05:00 +5°C° 0 mm 1 m/s 695 mmHg 70%
    06:00 +6°C° 0 mm 1 m/s 696 mmHg 67%
    07:00 +6°C° 0 mm 1 m/s 696 mmHg 64%
    08:00 +7°C° 0 mm 1 m/s 696 mmHg 61%
    09:00 +9°C° 0 mm 1 m/s 696 mmHg 54%
    10:00 +11°C° 0 mm 1 m/s 696 mmHg 47%
    11:00 +13°C° 0 mm 2 m/s 696 mmHg 41%
    12:00 +14°C° 0 mm 2 m/s 696 mmHg 39%
    13:00 +15°C° 0 mm 2 m/s 696 mmHg 37%
    14:00 +16°C° 0 mm 3 m/s 696 mmHg 36%
    15:00 +16°C° 0 mm 3 m/s 695 mmHg 37%
    16:00 +16°C° 0 mm 3 m/s 695 mmHg 39%
    17:00 +15°C° 0 mm 4 m/s 694 mmHg 41%
    18:00 +13°C° 0 mm 3 m/s 694 mmHg 48%
    19:00 +12°C° 0 mm 2 m/s 694 mmHg 56%
    20:00 +9°C° 0 mm 2 m/s 694 mmHg 63%
    21:00 +8°C° 0 mm 2 m/s 694 mmHg 67%
    22:00 +9°C° 0 mm 1 m/s 695 mmHg 71%
    23:00 +8°C° 0 mm 1 m/s 695 mmHg 75%

    Mâine, 24 Martie, Duminică

    Timp Temperatura Precipitaţii Vânt Presiune Umiditate
    00:00 +8°C° 0 mm 1 m/s 695 mmHg 78%
    01:00 +7°C° 0 mm 1 m/s 695 mmHg 80%
    02:00 +7°C° 0 mm 1 m/s 695 mmHg 82%
    03:00 +6°C° 0 mm 1 m/s 695 mmHg 83%
    04:00 +6°C° 0 mm 1 m/s 695 mmHg 84%
    05:00 +6°C° 0 mm 1 m/s 695 mmHg 85%
    06:00 +6°C° 0 mm 1 m/s 695 mmHg 82%
    07:00 +7°C° 0 mm 1 m/s 695 mmHg 79%
    08:00 +8°C° 0 mm 1 m/s 695 mmHg 76%
    09:00 +9°C° 0 mm 1 m/s 696 mmHg 68%
    10:00 +10°C° 0 mm 2 m/s 696 mmHg 60%
    11:00 +13°C° 0 mm 2 m/s 696 mmHg 52%
    12:00 +14°C° 0 mm 2 m/s 695 mmHg 46%
    13:00 +14°C° 0 mm 3 m/s 695 mmHg 40%
    14:00 +16°C° 0 mm 3 m/s 695 mmHg 34%
    15:00 +14°C° 0 mm 3 m/s 694 mmHg 34%
    16:00 +14°C° 0 mm 3 m/s 694 mmHg 34%
    17:00 +14°C° 0 mm 3 m/s 693 mmHg 34%
    18:00 +13°C° 0 mm 2 m/s 693 mmHg 39%
    19:00 +10°C° 0 mm 2 m/s 693 mmHg 44%
    20:00 +10°C° 0 mm 1 m/s 693 mmHg 49%
    21:00 +9°C° 0 mm 1 m/s 693 mmHg 51%
    22:00 +7°C° 0 mm 0 m/s 693 mmHg 54%
    23:00 +7°C° 0 mm 0 m/s 693 mmHg 56%

    Poimâine, 25 Martie, Luni

    Timp Temperatura Precipitaţii Vânt Presiune Umiditate
    00:00 +6°C° 0 mm 0 m/s 692 mmHg 57%
    01:00 +6°C° 0 mm 0 m/s 692 mmHg 58%
    02:00 +6°C° 0 mm 0 m/s 692 mmHg 59%
    03:00 +5°C° 0 mm 0 m/s 691 mmHg 59%
    04:00 +6°C° 0 mm 1 m/s 691 mmHg 59%
    05:00 +6°C° 0 mm 1 m/s 691 mmHg 59%
    06:00 +6°C° 0 mm 1 m/s 691 mmHg 57%
    07:00 +7°C° 0 mm 1 m/s 691 mmHg 55%
    08:00 +8°C° 0 mm 1 m/s 691 mmHg 52%
    09:00 +10°C° 0 mm 1 m/s 691 mmHg 47%
    10:00 +13°C° 0 mm 1 m/s 691 mmHg 41%
    11:00 +15°C° 0 mm 2 m/s 691 mmHg 35%
    12:00 +16°C° 0 mm 2 m/s 690 mmHg 31%
    13:00 +17°C° 0 mm 2 m/s 690 mmHg 28%
    14:00 +18°C° 0 mm 2 m/s 690 mmHg 24%
    15:00 +18°C° 0 mm 2 m/s 689 mmHg 25%
    16:00 +17°C° 0 mm 2 m/s 689 mmHg 26%
    17:00 +17°C° 0 mm 2 m/s 688 mmHg 27%
    18:00 +15°C° 0 mm 2 m/s 688 mmHg 32%
    19:00 +13°C° 0 mm 1 m/s 687 mmHg 38%
    20:00 +11°C° 0 mm 1 m/s 687 mmHg 43%
    21:00 +10°C° 0 mm 1 m/s 687 mmHg 44%
    22:00 +10°C° 0 mm 1 m/s 687 mmHg 46%
    23:00 +8°C° 0 mm 0 m/s 687 mmHg 48%

    26 Martie, Marţi

    Timp Temperatura Precipitaţii Vânt Presiune Umiditate
    00:00 +8°C° 0 mm 0 m/s 687 mmHg 49%
    01:00 +8°C° 0 mm 1 m/s 687 mmHg 51%
    02:00 +8°C° 0 mm 1 m/s 687 mmHg 52%
    03:00 +7°C° 0 mm 1 m/s 687 mmHg 55%
    04:00 +7°C° 0 mm 1 m/s 687 mmHg 58%
    05:00 +5°C° 0 mm 2 m/s 688 mmHg 61%
    06:00 +4°C° 0.4 mm 3 m/s 688 mmHg 66%
    07:00 +4°C° 0.4 mm 4 m/s 689 mmHg 71%
    08:00 +2°C° 0.4 mm 5 m/s 689 mmHg 76%
    09:00 +3°C° 0.1 mm 5 m/s 690 mmHg 70%
    10:00 +3°C° 0.1 mm 5 m/s 690 mmHg 64%
    11:00 +5°C° 0.1 mm 4 m/s 690 mmHg 58%
    12:00 +5°C° 0 mm 5 m/s 690 mmHg 55%
    13:00 +6°C° 0 mm 5 m/s 690 mmHg 51%
    14:00 +7°C° 0 mm 5 m/s 690 mmHg 48%
    15:00 +6°C° 0.1 mm 5 m/s 690 mmHg 48%
    16:00 +6°C° 0.1 mm 5 m/s 690 mmHg 48%
    17:00 +5°C° 0.1 mm 5 m/s 690 mmHg 48%
    18:00 +5°C° 0.1 mm 4 m/s 690 mmHg 51%
    19:00 +4°C° 0.1 mm 3 m/s 691 mmHg 53%
    20:00 +4°C° 0.1 mm 2 m/s 691 mmHg 55%
    21:00 +4°C° 0.1 mm 2 m/s 691 mmHg 56%
    22:00 +3°C° 0.1 mm 3 m/s 692 mmHg 57%
    23:00 +2°C° 0.1 mm 3 m/s 692 mmHg 58%

    27 Martie, Miercuri

    Timp Temperatura Precipitaţii Vânt Presiune Umiditate
    00:00 +2°C° 0.2 mm 3 m/s 692 mmHg 63%
    01:00 +1°C° 0.2 mm 3 m/s 692 mmHg 68%
    02:00 +1°C° 0.2 mm 3 m/s 693 mmHg 73%
    03:00 +1°C° 0.3 mm 3 m/s 693 mmHg 77%
    04:00 +1°C° 0.3 mm 3 m/s 693 mmHg 80%
    05:00 0°C° 0.3 mm 3 m/s 693 mmHg 84%
    06:00 +1°C° 0.1 mm 3 m/s 693 mmHg 83%
    07:00 +1°C° 0.1 mm 3 m/s 694 mmHg 82%
    08:00 0°C° 0.1 mm 4 m/s 694 mmHg 81%
    09:00 +1°C° 0 mm 4 m/s 694 mmHg 75%
    10:00 +3°C° 0 mm 4 m/s 694 mmHg 69%
    11:00 +4°C° 0 mm 4 m/s 695 mmHg 63%
    12:00 +4°C° 0 mm 4 m/s 695 mmHg 60%
    13:00 +5°C° 0 mm 4 m/s 694 mmHg 57%
    14:00 +5°C° 0 mm 4 m/s 694 mmHg 54%
    15:00 +5°C° 0.1 mm 4 m/s 694 mmHg 54%
    16:00 +5°C° 0.1 mm 4 m/s 694 mmHg 55%
    17:00 +5°C° 0.1 mm 4 m/s 694 mmHg 55%
    18:00 +4°C° 0.1 mm 3 m/s 694 mmHg 59%
    19:00 +3°C° 0.1 mm 2 m/s 694 mmHg 64%
    20:00 +2°C° 0.1 mm 2 m/s 695 mmHg 68%
    21:00 +2°C° 0 mm 2 m/s 695 mmHg 70%
    22:00 +1°C° 0 mm 2 m/s 695 mmHg 71%
    23:00 +1°C° 0 mm 1 m/s 695 mmHg 72%

    28 Martie, Joi

    Timp Temperatura Precipitaţii Vânt Presiune Umiditate
    00:00 +1°C° 0 mm 1 m/s 695 mmHg 73%
    01:00 0°C° 0 mm 1 m/s 695 mmHg 73%
    02:00 0°C° 0 mm 1 m/s 695 mmHg 73%
    03:00 0°C° 0 mm 1 m/s 695 mmHg 74%
    04:00 0°C° 0 mm 1 m/s 695 mmHg 74%
    05:00 -1°C° 0 mm 1 m/s 695 mmHg 75%
    06:00 0°C° 0 mm 1 m/s 696 mmHg 71%
    07:00 +1°C° 0 mm 1 m/s 696 mmHg 67%
    08:00 +2°C° 0 mm 1 m/s 697 mmHg 63%
    09:00 +4°C° 0 mm 1 m/s 697 mmHg 57%
    10:00 +4°C° 0 mm 2 m/s 697 mmHg 50%
    11:00 +6°C° 0 mm 2 m/s 698 mmHg 44%
    12:00 +7°C° 0 mm 3 m/s 697 mmHg 43%
    13:00 +7°C° 0 mm 3 m/s 697 mmHg 41%
    14:00 +7°C° 0 mm 4 m/s 697 mmHg 39%
    15:00 +7°C° 0 mm 4 m/s 697 mmHg 42%
    16:00 +6°C° 0 mm 4 m/s 697 mmHg 44%
    17:00 +6°C° 0 mm 4 m/s 696 mmHg 47%
    18:00 +4°C° 0 mm 4 m/s 696 mmHg 53%
    19:00 +3°C° 0 mm 3 m/s 697 mmHg 60%
    20:00 +1°C° 0 mm 3 m/s 697 mmHg 66%
    21:00 +1°C° 0 mm 2 m/s 697 mmHg 67%
    22:00 +1°C° 0 mm 2 m/s 697 mmHg 68%
    23:00 +1°C° 0 mm 1 m/s 697 mmHg 69%
    Arată mai mult